Back to catalog

STARLINK-34007

AliveCommunicationsVLEO
NORAD 63868·PAYLOAD·🇺🇸 United States

Launched May 10, 2025 from Vandenberg Space Force Base

Loading…

Next Passes (next 24 hours)

TLE

FreshSource: CelesTrak SupGP

Epoch: Sep 14, 2026, 14:07 UTC

1 63868C 25094E   26257.58868056  .00030296  00000+0  10271-2 0  2578
2 63868  69.9996 116.5665 0003057 265.3050 283.1995 15.30401210    12

Track STARLINK-34007 in real time with AllMySat

Download on the App Store